This is the latest recevied weather packets stored in our database for station/object OE3MHU-13. If no packets are shown the sender has not sent any weather packets the latest 10 day(s).
| Time | Temp. | Humidity | Pressure | Rain* | Wind** | Luminosity | Snow |
|---|---|---|---|---|---|---|---|
| 1777451832 | 15° C | 32% | 1025.5 hPa | 0 mm | - | - | - |
| 1777451531 | 14.44° C | 33% | 1025.8 hPa | 0 mm | - | - | - |
| 1777451231 | 14.44° C | 34% | 1025.8 hPa | 0 mm | - | - | - |
| 1777450931 | 14.44° C | 34% | 1025.7 hPa | 0 mm | - | - | - |
| 1777450631 | 14.44° C | 35% | 1025.5 hPa | 0 mm | - | - | - |
| 1777450331 | 14.44° C | 35% | 1025.7 hPa | 0 mm | - | - | - |
| 1777450031 | 14.44° C | 36% | 1025.7 hPa | 0 mm | - | - | - |
| 1777449731 | 13.89° C | 37% | 1025.5 hPa | 0 mm | - | - | - |
| 1777449431 | 13.89° C | 37% | 1025.5 hPa | 0 mm | - | - | - |
| 1777449131 | 13.33° C | 37% | 1025.7 hPa | 0 mm | - | - | - |
| 1777448531 | 12.22° C | 41% | 1025.7 hPa | 0 mm | - | - | - |
| 1777448231 | 11.67° C | 42% | 1025.5 hPa | 0 mm | - | - | - |
| 1777447932 | 11.67° C | 40% | 1025.7 hPa | 0 mm | - | - | - |
| 1777447630 | 11.67° C | 42% | 1025.5 hPa | 0 mm | - | - | - |
| 1777447331 | 11.67° C | 41% | 1025.5 hPa | 0 mm | - | - | - |
| 1777447031 | 11.67° C | 45% | 1025.5 hPa | 0 mm | - | - | - |
| 1777446726 | 10.56° C | 46% | 1025.4 hPa | 0 mm | - | - | - |
| 1777446419 | 10° C | 47% | 1025.5 hPa | 0 mm | - | - | - |
| 1777446113 | 10° C | 47% | 1025.4 hPa | 0 mm | - | - | - |
| 1777445806 | 10° C | 47% | 1025.4 hPa | 0 mm | - | - | - |
| 1777445507 | 10° C | 46% | 1025.5 hPa | 0 mm | - | - | - |
| 1777444601 | 9.44° C | 48% | 1025.5 hPa | 0 mm | - | - | - |
| 1777444299 | 8.89° C | 49% | 1025.8 hPa | 0 mm | - | - | - |
| 1777443999 | 8.89° C | 47% | 1025.7 hPa | 0 mm | - | - | - |
| 1777443699 | 8.89° C | 48% | 1025.5 hPa | 0 mm | - | - | - |
* Rain latest hour (hover to see other rain measurements)
** Current wind speed in m/s (hover to see current wind gust speed)